Location: Burgberg
(50.1428°N, 11.0671°E)
Time: 05:48:27
(UTC+00:00)

Cosmos 1408 - Pass Details

Date: 26 January 2020
Orbit: 470 x 495 km, 82.6° (Epoch: 23 February)

Event Time Altitude Azimuth Distance (km) Brightness Sun altitude
Rises 06:06:58 0° 352° (N) 2,596 6.0 -8.4°
Reaches altitude 10° 06:09:06 10° 355° (N) 1,706 5.1 -8.0°
Maximum altitude 06:12:49 67° 78° (ENE) 540 3.0 -7.5°
Drops below altitude 10° 06:16:30 10° 162° (SSE) 1,683 5.9 -6.9°
Sets 06:18:36 0° 165° (SSE) 2,555 6.8 -6.6°
